{"data":{"norad_id":55788,"epoch":"2026-09-20T22:00:03.000096Z","epoch_age_seconds":67065,"freshness":"FRESH","line1":"1 55788U 23028AZ  26263.91670139  .00083234  00000+0  58299-2 0  9997","line2":"2 55788  70.0010  72.2809 0004130 239.8706 277.1765 15.04752622  5761","mean_motion":15.04752622,"eccentricity":0.000413,"inclination_deg":70.001,"raan_deg":72.2809,"arg_perigee_deg":239.8706,"mean_anomaly_deg":277.1765,"bstar":0.0058299,"rev_number":576,"period_min":95.696792877893,"perigee_km":549.40288387743,"apogee_km":555.12739604504,"semimajor_km":6930.4021399612,"source":"CELESTRAK","updated_at":"2026-09-21T09:00:33.320986Z"}}